Time,TemperatureF,DewpointF,PressureIn,WindDirection,WindDirectionDegrees,WindSpeedMPH,WindSpeedGustMPH,Humidity,HourlyPrecipIn,Conditions,Clouds,dailyrainin,SoftwareType,DateUTC
2013-02-14 00:00:00,33.5,31.3,29.70,NNW,338,3.1,3.1,92,0.05,,,0.00,WUHU216HW,2013-02-14 05:00:00,
2013-02-14 00:05:00,33.5,31.3,29.70,SE,135,1.8,6.0,92,0.04,,,0.00,WUHU216HW,2013-02-14 05:05:00,
2013-02-14 00:10:00,33.5,31.3,29.70,ENE,68,3.8,6.0,92,0.03,,,0.00,WUHU216HW,2013-02-14 05:10:00,
2013-02-14 00:15:00,33.5,31.3,29.71,East,90,3.1,5.1,92,0.03,,,0.00,WUHU216HW,2013-02-14 05:15:00,
2013-02-14 00:21:00,33.3,31.1,29.72,ENE,68,2.5,5.1,92,0.04,,,0.01,WUHU216HW,2013-02-14 05:21:00,
2013-02-14 00:27:00,33.1,31.1,29.72,East,90,1.3,4.9,92,0.03,,,0.01,WUHU216HW,2013-02-14 05:27:00,
2013-02-14 00:32:00,33.1,31.1,29.72,ESE,113,1.3,4.9,92,0.03,,,0.01,WUHU216HW,2013-02-14 05:32:00,
2013-02-14 00:39:00,33.1,31.1,29.71,North,0,0.4,3.1,92,0.02,,,0.01,WUHU216HW,2013-02-14 05:39:00,
2013-02-14 00:44:00,33.1,31.1,29.71,NNW,338,1.6,4.0,92,0.02,,,0.01,WUHU216HW,2013-02-14 05:44:00,
2013-02-14 00:49:00,33.1,31.1,29.71,ENE,68,1.8,4.0,92,0.02,,,0.01,WUHU216HW,2013-02-14 05:49:00,
2013-02-14 00:54:00,33.1,31.1,29.71,ENE,68,1.8,1.8,92,0.02,,,0.01,WUHU216HW,2013-02-14 05:54:00,
2013-02-14 00:59:00,33.1,31.1,29.71,East,90,4.0,4.0,92,0.02,,,0.01,WUHU216HW,2013-02-14 05:59:00,
2013-02-14 01:05:00,33.1,31.1,29.71,East,90,1.1,4.0,92,0.02,,,0.02,WUHU216HW,2013-02-14 06:05:00,
2013-02-14 01:10:00,33.1,31.1,29.71,ENE,68,1.1,4.0,92,0.03,,,0.03,WUHU216HW,2013-02-14 06:10:00,
2013-02-14 01:15:00,33.1,31.1,29.72,SE,135,2.5,3.8,92,0.03,,,0.03,WUHU216HW,2013-02-14 06:15:00,
2013-02-14 01:20:00,33.1,31.1,29.72,ENE,68,1.8,3.8,92,0.02,,,0.03,WUHU216HW,2013-02-14 06:20:00,
2013-02-14 01:25:00,33.3,31.1,29.72,NE,45,1.8,3.6,92,0.02,,,0.03,WUHU216HW,2013-02-14 06:25:00,
2013-02-14 01:30:00,33.3,31.1,29.73,North,0,1.1,3.4,92,0.02,,,0.03,WUHU216HW,2013-02-14 06:30:00,
2013-02-14 01:35:00,33.3,31.1,29.73,NNE,23,1.1,3.6,92,0.02,,,0.03,WUHU216HW,2013-02-14 06:35:00,
2013-02-14 01:40:00,33.3,31.1,29.73,NNE,23,2.2,3.6,92,0.03,,,0.04,WUHU216HW,2013-02-14 06:40:00,
2013-02-14 01:45:00,33.5,31.3,29.73,ENE,68,3.4,3.6,92,0.02,,,0.04,WUHU216HW,2013-02-14 06:45:00,
2013-02-14 01:50:00,33.5,31.3,29.73,North,0,2.5,3.6,92,0.02,,,0.04,WUHU216HW,2013-02-14 06:50:00,
2013-02-14 01:55:00,33.5,31.3,29.74,North,0,2.9,5.4,92,0.02,,,0.04,WUHU216HW,2013-02-14 06:55:00,
2013-02-14 02:00:00,33.5,31.3,29.74,North,0,2.9,5.4,92,0.02,,,0.04,WUHU216HW,2013-02-14 07:00:00,
2013-02-14 02:05:00,33.5,31.3,29.75,North,0,3.4,6.3,92,0.02,,,0.04,WUHU216HW,2013-02-14 07:05:00,
2013-02-14 02:10:00,33.5,31.3,29.75,North,0,4.7,6.3,92,0.01,,,0.04,WUHU216HW,2013-02-14 07:10:00,
2013-02-14 02:15:00,33.5,31.6,29.75,NNE,23,2.9,5.4,93,0.01,,,0.04,WUHU216HW,2013-02-14 07:15:00,
2013-02-14 02:20:00,33.3,31.1,29.76,North,0,3.4,4.7,92,0.01,,,0.04,WUHU216HW,2013-02-14 07:20:00,
2013-02-14 02:25:00,33.3,31.1,29.76,North,0,0.9,5.1,92,0.01,,,0.04,WUHU216HW,2013-02-14 07:25:00,
2013-02-14 02:30:00,33.3,31.1,29.77,ESE,113,3.4,5.1,92,0.01,,,0.04,WUHU216HW,2013-02-14 07:30:00,
2013-02-14 02:35:00,33.3,31.1,29.77,NE,45,5.1,5.1,92,0.02,,,0.05,WUHU216HW,2013-02-14 07:35:00,
2013-02-14 02:40:00,33.3,31.1,29.77,NE,45,2.0,5.1,92,0.01,,,0.05,WUHU216HW,2013-02-14 07:40:00,
2013-02-14 02:45:00,33.3,31.4,29.78,ENE,68,2.9,7.6,93,0.01,,,0.05,WUHU216HW,2013-02-14 07:45:00,
2013-02-14 02:50:00,33.3,31.4,29.78,North,0,5.4,7.6,93,0.01,,,0.05,WUHU216HW,2013-02-14 07:50:00,
2013-02-14 02:55:00,33.3,31.4,29.78,NNW,338,2.5,7.2,93,0.01,,,0.05,WUHU216HW,2013-02-14 07:55:00,
2013-02-14 03:00:00,33.3,31.4,29.79,North,0,3.6,6.5,93,0.01,,,0.05,WUHU216HW,2013-02-14 08:00:00,
2013-02-14 03:05:00,33.3,31.4,29.80,North,0,1.1,6.7,93,0.01,,,0.05,WUHU216HW,2013-02-14 08:05:00,
2013-02-14 03:10:00,33.3,31.4,29.80,North,0,3.4,6.7,93,0.01,,,0.05,WUHU216HW,2013-02-14 08:10:00,
2013-02-14 03:15:00,33.5,31.3,29.80,North,0,2.5,4.9,92,0.01,,,0.05,WUHU216HW,2013-02-14 08:15:00,
2013-02-14 03:20:00,33.5,31.3,29.81,NNE,23,6.3,7.2,92,0.01,,,0.05,WUHU216HW,2013-02-14 08:20:00,
2013-02-14 03:25:00,33.5,31.3,29.81,NNE,23,1.1,8.7,92,0.01,,,0.05,WUHU216HW,2013-02-14 08:25:00,
2013-02-14 03:30:00,33.5,31.3,29.81,NNW,338,1.6,8.7,92,0.01,,,0.05,WUHU216HW,2013-02-14 08:30:00,
2013-02-14 03:35:00,33.7,31.8,29.81,East,90,2.7,6.9,93,0.00,,,0.05,WUHU216HW,2013-02-14 08:35:00,
2013-02-14 03:40:00,33.7,31.8,29.81,West,270,1.1,5.8,93,0.00,,,0.05,WUHU216HW,2013-02-14 08:40:00,
2013-02-14 03:45:00,33.7,31.5,29.81,NE,45,0.9,3.6,92,0.00,,,0.05,WUHU216HW,2013-02-14 08:45:00,
2013-02-14 03:50:00,33.7,31.5,29.81,North,0,2.7,4.5,92,0.00,,,0.05,WUHU216HW,2013-02-14 08:50:00,
2013-02-14 03:55:00,33.7,31.5,29.81,NNE,23,1.8,4.5,92,0.01,,,0.06,WUHU216HW,2013-02-14 08:55:00,
2013-02-14 04:00:00,33.7,31.5,29.81,North,0,1.6,3.8,92,0.01,,,0.06,WUHU216HW,2013-02-14 09:00:00,
2013-02-14 04:05:00,33.8,31.7,29.81,North,0,5.1,5.1,92,0.01,,,0.06,WUHU216HW,2013-02-14 09:05:00,
2013-02-14 04:10:00,33.7,31.5,29.82,NNE,23,3.1,6.0,92,0.01,,,0.06,WUHU216HW,2013-02-14 09:10:00,
2013-02-14 04:15:00,33.7,31.5,29.82,NNW,338,1.6,7.2,92,0.01,,,0.06,WUHU216HW,2013-02-14 09:15:00,
2013-02-14 04:20:00,33.7,31.5,29.83,NNE,23,3.4,7.2,92,0.01,,,0.06,WUHU216HW,2013-02-14 09:20:00,
2013-02-14 04:25:00,33.7,31.5,29.82,North,0,1.6,5.4,92,0.01,,,0.06,WUHU216HW,2013-02-14 09:25:00,
2013-02-14 04:30:00,33.7,31.5,29.82,NNE,23,3.6,4.7,92,0.01,,,0.06,WUHU216HW,2013-02-14 09:30:00,
2013-02-14 04:35:00,33.7,31.5,29.82,North,0,4.3,4.7,92,0.01,,,0.06,WUHU216HW,2013-02-14 09:35:00,
2013-02-14 04:40:00,33.5,31.3,29.82,North,0,3.1,4.7,92,0.01,,,0.06,WUHU216HW,2013-02-14 09:40:00,
2013-02-14 04:45:00,33.5,31.3,29.83,North,0,2.7,4.3,92,0.01,,,0.06,WUHU216HW,2013-02-14 09:45:00,
2013-02-14 04:46:00,33.5,31.3,29.83,NNW,338,1.3,4.3,92,0.01,,,0.06,WUHU216HW,2013-02-14 09:46:00,
2013-02-14 04:47:00,33.5,31.3,29.82,North,0,1.1,4.3,92,0.01,,,0.06,WUHU216HW,2013-02-14 09:47:00,
2013-02-14 04:48:00,33.5,31.3,29.82,NNE,23,2.7,4.3,92,0.00,,,0.06,WUHU216HW,2013-02-14 09:48:00,
2013-02-14 04:49:00,33.5,31.3,29.82,North,0,3.1,4.3,92,0.00,,,0.06,WUHU216HW,2013-02-14 09:49:00,
2013-02-14 04:50:00,33.5,31.3,29.82,North,0,1.1,4.3,92,0.00,,,0.06,WUHU216HW,2013-02-14 09:50:00,
2013-02-14 04:51:00,33.5,31.3,29.83,NNE,23,2.5,4.3,92,0.00,,,0.06,WUHU216HW,2013-02-14 09:51:00,
2013-02-14 04:52:00,33.5,31.3,29.83,North,0,0.4,4.3,92,0.00,,,0.06,WUHU216HW,2013-02-14 09:52:00,
2013-02-14 04:53:00,33.5,31.3,29.83,North,0,4.0,4.0,92,0.00,,,0.06,WUHU216HW,2013-02-14 09:53:00,
2013-02-14 04:54:00,33.3,31.1,29.83,NNW,338,0.9,4.0,92,0.00,,,0.06,WUHU216HW,2013-02-14 09:54:00,
2013-02-14 04:55:00,33.3,31.1,29.83,NNE,23,2.5,4.0,92,0.00,,,0.06,WUHU216HW,2013-02-14 09:55:00,
2013-02-14 04:56:00,33.3,31.1,29.83,North,0,1.8,4.7,92,0.00,,,0.06,WUHU216HW,2013-02-14 09:56:00,
2013-02-14 04:57:00,33.3,31.1,29.83,NNE,23,3.6,4.7,92,0.00,,,0.06,WUHU216HW,2013-02-14 09:57:00,
2013-02-14 04:58:00,33.3,31.1,29.83,NNE,23,2.0,4.7,92,0.00,,,0.06,WUHU216HW,2013-02-14 09:58:00,
2013-02-14 04:59:00,33.3,31.1,29.84,North,0,1.3,4.7,92,0.00,,,0.06,WUHU216HW,2013-02-14 09:59:00,
2013-02-14 05:00:00,33.3,31.1,29.84,North,0,2.2,4.7,92,0.00,,,0.06,WUHU216HW,2013-02-14 10:00:00,
2013-02-14 05:01:00,33.3,31.1,29.84,North,0,0.4,4.7,92,0.00,,,0.06,WUHU216HW,2013-02-14 10:01:00,
2013-02-14 05:02:00,33.3,31.1,29.84,NNW,338,0.0,4.7,92,0.00,,,0.06,WUHU216HW,2013-02-14 10:02:00,
2013-02-14 05:03:00,33.3,31.1,29.84,NE,45,1.3,4.7,92,0.00,,,0.06,WUHU216HW,2013-02-14 10:03:00,
2013-02-14 05:04:00,33.1,31.1,29.85,NNE,23,1.8,4.7,92,0.00,,,0.06,WUHU216HW,2013-02-14 10:04:00,
2013-02-14 05:05:00,33.1,31.1,29.85,NNE,23,0.4,4.7,92,0.00,,,0.06,WUHU216HW,2013-02-14 10:05:00,
2013-02-14 05:06:00,33.1,31.1,29.85,NNE,23,4.9,4.9,92,0.00,,,0.06,WUHU216HW,2013-02-14 10:06:00,
2013-02-14 05:07:00,33.1,31.1,29.85,NNE,23,4.0,4.9,92,0.00,,,0.06,WUHU216HW,2013-02-14 10:07:00,
2013-02-14 05:08:00,33.1,31.1,29.85,North,0,3.1,4.9,92,0.00,,,0.06,WUHU216HW,2013-02-14 10:08:00,
2013-02-14 05:09:00,33.1,31.1,29.85,NNE,23,1.8,4.9,92,0.00,,,0.06,WUHU216HW,2013-02-14 10:09:00,
2013-02-14 05:10:00,33.1,31.1,29.85,North,0,2.2,4.9,92,0.00,,,0.06,WUHU216HW,2013-02-14 10:10:00,
2013-02-14 05:11:00,33.1,31.1,29.85,NNW,338,1.1,4.9,92,0.00,,,0.06,WUHU216HW,2013-02-14 10:11:00,
2013-02-14 05:12:00,33.1,31.1,29.85,North,0,2.5,4.9,92,0.00,,,0.06,WUHU216HW,2013-02-14 10:12:00,
2013-02-14 05:13:00,33.1,31.1,29.85,North,0,2.7,4.9,92,0.00,,,0.06,WUHU216HW,2013-02-14 10:13:00,
2013-02-14 05:14:00,33.1,31.1,29.85,North,0,0.7,4.9,92,0.00,,,0.06,WUHU216HW,2013-02-14 10:14:00,
2013-02-14 05:15:00,33.1,31.1,29.85,NNW,338,3.6,4.9,92,0.00,,,0.06,WUHU216HW,2013-02-14 10:15:00,
2013-02-14 05:16:00,33.1,31.1,29.85,NE,45,2.2,4.5,92,0.00,,,0.06,WUHU216HW,2013-02-14 10:16:00,
2013-02-14 05:17:00,33.1,31.1,29.85,NNE,23,3.4,5.1,92,0.00,,,0.06,WUHU216HW,2013-02-14 10:17:00,
2013-02-14 05:18:00,33.1,31.1,29.85,NNE,23,1.8,5.1,92,0.00,,,0.06,WUHU216HW,2013-02-14 10:18:00,
2013-02-14 05:19:00,33.1,31.1,29.85,North,0,0.9,5.1,92,0.00,,,0.06,WUHU216HW,2013-02-14 10:19:00,
2013-02-14 05:20:00,33.1,31.1,29.85,NW,315,0.9,5.1,92,0.00,,,0.06,WUHU216HW,2013-02-14 10:20:00,
2013-02-14 05:21:00,33.1,31.1,29.85,North,0,3.1,5.1,92,0.00,,,0.06,WUHU216HW,2013-02-14 10:21:00,
2013-02-14 05:22:00,33.1,31.1,29.86,NNE,23,2.7,5.1,92,0.00,,,0.06,WUHU216HW,2013-02-14 10:22:00,
2013-02-14 05:23:00,33.1,31.1,29.85,North,0,2.2,5.1,92,0.00,,,0.06,WUHU216HW,2013-02-14 10:23:00,
2013-02-14 05:26:00,32.9,30.9,29.85,NNW,338,2.2,5.1,92,0.00,,,0.06,WUHU216HW,2013-02-14 10:26:00,
2013-02-14 05:31:00,32.9,30.9,29.85,North,0,0.9,3.4,92,0.00,,,0.06,WUHU216HW,2013-02-14 10:31:00,
2013-02-14 05:36:00,32.8,30.7,29.86,North,0,0.0,2.9,92,0.00,,,0.06,WUHU216HW,2013-02-14 10:36:00,
2013-02-14 05:41:00,32.8,30.7,29.86,North,0,2.0,3.6,92,0.00,,,0.06,WUHU216HW,2013-02-14 10:41:00,
2013-02-14 05:46:00,32.8,30.7,29.87,West,270,0.4,3.6,92,0.00,,,0.06,WUHU216HW,2013-02-14 10:46:00,
2013-02-14 05:51:00,32.8,30.7,29.87,North,0,2.5,3.1,92,0.00,,,0.06,WUHU216HW,2013-02-14 10:51:00,
2013-02-14 05:56:00,32.6,30.5,29.86,North,0,0.4,3.1,92,0.00,,,0.06,WUHU216HW,2013-02-14 10:56:00,
2013-02-14 06:01:00,32.4,30.3,29.86,North,0,0.0,1.8,92,0.00,,,0.06,WUHU216HW,2013-02-14 11:01:00,
2013-02-14 06:06:00,32.4,30.3,29.87,North,0,0.0,1.3,92,0.00,,,0.06,WUHU216HW,2013-02-14 11:06:00,
2013-02-14 06:11:00,32.2,30.2,29.87,North,0,0.2,1.3,92,0.00,,,0.06,WUHU216HW,2013-02-14 11:11:00,
2013-02-14 06:16:00,32.0,30.1,29.88,North,0,1.1,1.6,92,0.00,,,0.06,WUHU216HW,2013-02-14 11:16:00,
2013-02-14 06:21:00,32.0,30.1,29.88,North,0,0.0,1.6,92,0.00,,,0.06,WUHU216HW,2013-02-14 11:21:00,
2013-02-14 06:26:00,32.0,30.1,29.89,North,0,0.0,1.1,92,0.00,,,0.06,WUHU216HW,2013-02-14 11:26:00,
2013-02-14 06:31:00,32.0,29.8,29.89,North,0,0.9,1.3,91,0.00,,,0.06,WUHU216HW,2013-02-14 11:31:00,
2013-02-14 06:36:00,32.0,29.8,29.90,North,0,0.4,2.0,91,0.00,,,0.06,WUHU216HW,2013-02-14 11:36:00,
2013-02-14 06:41:00,32.0,30.1,29.89,North,0,0.4,2.0,92,0.00,,,0.06,WUHU216HW,2013-02-14 11:41:00,
2013-02-14 06:46:00,32.0,30.1,29.89,North,0,0.9,1.8,92,0.00,,,0.06,WUHU216HW,2013-02-14 11:46:00,
2013-02-14 06:52:00,32.0,30.1,29.90,North,0,0.2,1.8,92,0.00,,,0.06,WUHU216HW,2013-02-14 11:52:00,
2013-02-14 06:57:00,32.0,30.1,29.90,North,0,0.9,1.8,92,0.00,,,0.06,WUHU216HW,2013-02-14 11:57:00,
2013-02-14 07:02:00,32.0,30.1,29.90,North,0,0.7,1.8,92,0.00,,,0.06,WUHU216HW,2013-02-14 12:02:00,
2013-02-14 07:07:00,32.0,30.1,29.91,North,0,0.7,1.8,92,0.00,,,0.06,WUHU216HW,2013-02-14 12:07:00,
2013-02-14 07:12:00,32.2,30.4,29.91,North,0,1.6,2.5,93,0.00,,,0.06,WUHU216HW,2013-02-14 12:12:00,
2013-02-14 07:17:00,32.2,30.2,29.91,North,0,0.4,2.5,92,0.00,,,0.06,WUHU216HW,2013-02-14 12:17:00,
2013-02-14 07:22:00,32.2,30.2,29.92,North,0,0.2,2.2,92,0.00,,,0.06,WUHU216HW,2013-02-14 12:22:00,
2013-02-14 07:27:00,32.4,30.3,29.92,North,0,1.3,3.1,92,0.00,,,0.06,WUHU216HW,2013-02-14 12:27:00,
2013-02-14 07:32:00,32.4,30.3,29.92,North,0,0.4,3.1,92,0.00,,,0.06,WUHU216HW,2013-02-14 12:32:00,
2013-02-14 07:37:00,32.6,30.5,29.92,North,0,0.4,2.5,92,0.00,,,0.06,WUHU216HW,2013-02-14 12:37:00,
2013-02-14 07:42:00,32.8,30.7,29.93,North,0,0.4,1.8,92,0.00,,,0.06,WUHU216HW,2013-02-14 12:42:00,
2013-02-14 07:47:00,32.8,30.7,29.93,NNE,23,1.1,2.7,92,0.00,,,0.06,WUHU216HW,2013-02-14 12:47:00,
2013-02-14 07:52:00,32.8,30.7,29.94,NNW,338,0.4,2.7,92,0.00,,,0.06,WUHU216HW,2013-02-14 12:52:00,
2013-02-14 07:57:00,32.9,30.9,29.94,North,0,0.9,1.3,92,0.01,,,0.07,WUHU216HW,2013-02-14 12:57:00,
2013-02-14 08:02:00,33.3,31.1,29.95,NNW,338,0.7,1.1,92,0.01,,,0.07,WUHU216HW,2013-02-14 13:02:00,
2013-02-14 08:07:00,33.5,31.3,29.95,WNW,293,0.2,2.2,92,0.01,,,0.07,WUHU216HW,2013-02-14 13:07:00,
2013-02-14 08:12:00,33.5,31.3,29.95,NNW,338,0.4,2.2,92,0.01,,,0.07,WUHU216HW,2013-02-14 13:12:00,
2013-02-14 08:17:00,33.7,31.5,29.95,NNW,338,1.1,2.2,92,0.01,,,0.07,WUHU216HW,2013-02-14 13:17:00,
2013-02-14 08:22:00,33.7,31.8,29.95,NNW,338,0.4,2.5,93,0.01,,,0.07,WUHU216HW,2013-02-14 13:22:00,
2013-02-14 08:27:00,34.0,32.1,29.96,WSW,248,0.9,2.5,93,0.01,,,0.07,WUHU216HW,2013-02-14 13:27:00,
2013-02-14 08:32:00,34.2,32.3,29.96,NW,315,2.5,2.5,93,0.02,,,0.08,WUHU216HW,2013-02-14 13:32:00,
2013-02-14 08:37:00,34.6,32.7,29.96,WNW,293,0.9,2.7,93,0.02,,,0.08,WUHU216HW,2013-02-14 13:37:00,
2013-02-14 08:42:00,34.9,33.0,29.96,North,0,0.4,2.7,93,0.02,,,0.08,WUHU216HW,2013-02-14 13:42:00,
2013-02-14 08:47:00,35.1,33.2,29.96,North,0,1.3,1.8,93,0.02,,,0.08,WUHU216HW,2013-02-14 13:47:00,
2013-02-14 08:52:00,35.3,33.4,29.96,NNW,338,2.0,3.1,93,0.01,,,0.08,WUHU216HW,2013-02-14 13:52:00,
2013-02-14 08:57:00,35.6,33.8,29.96,West,270,1.8,3.1,93,0.02,,,0.09,WUHU216HW,2013-02-14 13:57:00,
2013-02-14 09:02:00,35.8,33.9,29.96,West,270,1.3,3.1,93,0.02,,,0.09,WUHU216HW,2013-02-14 14:02:00,
2013-02-14 09:07:00,36.0,34.1,29.96,NNW,338,1.3,3.1,93,0.02,,,0.09,WUHU216HW,2013-02-14 14:07:00,
2013-02-14 09:12:00,36.4,34.5,29.96,West,270,2.5,3.4,93,0.03,,,0.10,WUHU216HW,2013-02-14 14:12:00,
2013-02-14 09:17:00,36.5,34.4,29.97,NW,315,2.5,3.4,92,0.03,,,0.10,WUHU216HW,2013-02-14 14:17:00,
2013-02-14 09:22:00,36.7,34.6,29.97,WSW,248,0.9,2.5,92,0.04,,,0.11,WUHU216HW,2013-02-14 14:22:00,
2013-02-14 09:27:00,36.9,34.7,29.98,North,0,2.7,3.1,92,0.04,,,0.11,WUHU216HW,2013-02-14 14:27:00,
2013-02-14 09:32:00,37.1,34.9,29.98,WNW,293,0.0,4.3,92,0.03,,,0.11,WUHU216HW,2013-02-14 14:32:00,
2013-02-14 09:37:00,37.4,35.0,29.97,West,270,1.1,4.3,91,0.04,,,0.12,WUHU216HW,2013-02-14 14:37:00,
2013-02-14 09:43:00,37.8,35.4,29.98,West,270,2.5,3.8,91,0.04,,,0.12,WUHU216HW,2013-02-14 14:43:00,
2013-02-14 09:47:00,38.0,35.3,29.98,WNW,293,4.0,4.0,90,0.04,,,0.12,WUHU216HW,2013-02-14 14:47:00,
2013-02-14 09:53:00,38.2,35.5,29.97,NW,315,1.6,4.0,90,0.03,,,0.12,WUHU216HW,2013-02-14 14:53:00,
2013-02-14 09:58:00,38.3,35.9,29.97,NW,315,0.9,3.8,91,0.03,,,0.12,WUHU216HW,2013-02-14 14:58:00,
2013-02-14 10:03:00,38.5,35.8,29.97,West,270,2.5,2.5,90,0.03,,,0.12,WUHU216HW,2013-02-14 15:03:00,
2013-02-14 10:08:00,38.5,35.8,29.97,NNW,338,0.2,2.9,90,0.02,,,0.12,WUHU216HW,2013-02-14 15:08:00,
2013-02-14 10:13:00,38.9,36.2,29.98,North,0,0.0,2.9,90,0.03,,,0.13,WUHU216HW,2013-02-14 15:13:00,
2013-02-14 10:18:00,39.2,36.3,29.98,North,0,1.1,2.9,89,0.02,,,0.13,WUHU216HW,2013-02-14 15:18:00,
2013-02-14 10:23:00,40.0,37.0,29.98,NNE,23,1.1,2.9,89,0.02,,,0.13,WUHU216HW,2013-02-14 15:23:00,
2013-02-14 10:28:00,40.5,37.2,29.99,WNW,293,0.4,2.2,88,0.02,,,0.13,WUHU216HW,2013-02-14 15:28:00,
2013-02-14 10:33:00,41.0,37.7,29.99,North,0,0.9,2.2,88,0.01,,,0.13,WUHU216HW,2013-02-14 15:33:00,
2013-02-14 10:38:00,41.6,38.0,29.98,NW,315,0.2,2.2,87,0.01,,,0.13,WUHU216HW,2013-02-14 15:38:00,
2013-02-14 10:43:00,42.1,38.5,29.98,NNW,338,0.0,2.2,87,0.01,,,0.13,WUHU216HW,2013-02-14 15:43:00,
2013-02-14 10:48:00,42.7,38.4,29.98,NNE,23,2.2,4.7,85,0.01,,,0.13,WUHU216HW,2013-02-14 15:48:00,
2013-02-14 10:53:00,42.7,37.8,29.98,NNE,23,2.5,4.7,83,0.01,,,0.13,WUHU216HW,2013-02-14 15:53:00,
2013-02-14 10:58:00,42.1,37.6,29.99,West,270,0.2,3.6,84,0.01,,,0.13,WUHU216HW,2013-02-14 15:58:00,
2013-02-14 11:03:00,42.3,38.1,29.99,NNE,23,0.7,3.6,85,0.01,,,0.13,WUHU216HW,2013-02-14 16:03:00,
2013-02-14 11:08:00,42.7,38.4,29.99,North,0,0.4,2.5,85,0.00,,,0.13,WUHU216HW,2013-02-14 16:08:00,
2013-02-14 11:13:00,43.0,38.8,29.99,West,270,0.4,2.5,85,0.00,,,0.13,WUHU216HW,2013-02-14 16:13:00,
2013-02-14 11:18:00,43.6,38.7,29.99,ENE,68,0.7,1.8,83,0.00,,,0.13,WUHU216HW,2013-02-14 16:18:00,
2013-02-14 11:23:00,43.4,37.9,29.99,NNW,338,1.6,3.8,81,0.00,,,0.13,WUHU216HW,2013-02-14 16:23:00,
2013-02-14 11:28:00,43.2,37.7,29.99,North,0,1.3,3.8,81,0.00,,,0.13,WUHU216HW,2013-02-14 16:28:00,
2013-02-14 11:33:00,43.6,38.1,29.99,North,0,2.5,3.4,81,0.00,,,0.13,WUHU216HW,2013-02-14 16:33:00,
2013-02-14 11:38:00,44.1,38.6,30.00,NNE,23,1.1,3.4,81,0.00,,,0.13,WUHU216HW,2013-02-14 16:38:00,
2013-02-14 11:43:00,44.1,38.0,29.99,NNE,23,2.7,3.1,79,0.00,,,0.13,WUHU216HW,2013-02-14 16:43:00,
2013-02-14 11:48:00,43.9,37.2,30.00,North,0,0.0,3.1,77,0.00,,,0.13,WUHU216HW,2013-02-14 16:48:00,
2013-02-14 11:53:00,43.9,38.2,29.99,NNW,338,0.0,2.7,80,0.00,,,0.13,WUHU216HW,2013-02-14 16:53:00,
2013-02-14 11:58:00,43.9,37.2,29.99,North,0,2.5,3.1,77,0.00,,,0.13,WUHU216HW,2013-02-14 16:58:00,
2013-02-14 12:03:00,43.2,36.5,29.99,North,0,1.1,3.4,77,0.00,,,0.13,WUHU216HW,2013-02-14 17:03:00,
2013-02-14 12:08:00,43.2,36.5,29.99,North,0,0.0,4.5,77,0.00,,,0.13,WUHU216HW,2013-02-14 17:08:00,
2013-02-14 12:13:00,43.6,37.4,29.99,North,0,0.4,4.5,79,0.00,,,0.13,WUHU216HW,2013-02-14 17:13:00,
2013-02-14 12:18:00,44.5,37.4,29.98,North,0,0.9,3.6,76,0.00,,,0.13,WUHU216HW,2013-02-14 17:18:00,
2013-02-14 12:23:00,45.4,37.5,29.98,NE,45,1.8,3.8,74,0.00,,,0.13,WUHU216HW,2013-02-14 17:23:00,
2013-02-14 12:28:00,45.0,36.6,29.98,NNE,23,2.7,4.7,72,0.00,,,0.13,WUHU216HW,2013-02-14 17:28:00,
2013-02-14 12:33:00,45.2,37.0,29.97,ESE,113,0.9,4.7,73,0.00,,,0.13,WUHU216HW,2013-02-14 17:33:00,
2013-02-14 12:38:00,45.7,37.9,29.97,NW,315,1.8,4.0,74,0.00,,,0.13,WUHU216HW,2013-02-14 17:38:00,
2013-02-14 12:43:00,46.1,36.9,29.97,NNE,23,2.9,4.0,70,0.00,,,0.13,WUHU216HW,2013-02-14 17:43:00,
2013-02-14 12:48:00,45.9,37.5,29.97,North,0,1.6,3.1,72,0.00,,,0.13,WUHU216HW,2013-02-14 17:48:00,
2013-02-14 12:53:00,46.1,37.6,29.97,WNW,293,1.8,3.4,72,0.00,,,0.13,WUHU216HW,2013-02-14 17:53:00,
2013-02-14 12:58:00,46.1,37.6,29.97,WNW,293,1.8,3.4,72,0.00,,,0.13,WUHU216HW,2013-02-14 17:58:00,
2013-02-14 13:03:00,46.1,36.1,29.97,East,90,1.8,1.8,68,0.00,,,0.13,WUHU216HW,2013-02-14 18:03:00,
2013-02-14 13:08:00,46.1,36.1,29.97,East,90,1.8,1.8,68,0.00,,,0.13,WUHU216HW,2013-02-14 18:08:00,
2013-02-14 14:00:00,45.7,37.3,29.97,SE,135,2.2,2.2,72,0.00,,,0.13,WUHU216HW,2013-02-14 19:00:00,
2013-02-14 14:06:00,45.7,37.3,29.97,SE,135,2.2,2.2,72,0.00,,,0.13,WUHU216HW,2013-02-14 19:06:00,
2013-02-14 15:00:00,45.9,38.4,29.98,WSW,248,1.1,1.1,75,0.00,,,0.13,WUHU216HW,2013-02-14 20:00:00,
2013-02-14 15:05:00,45.7,38.3,29.99,WSW,248,2.0,2.5,75,0.00,,,0.13,WUHU216HW,2013-02-14 20:05:00,
2013-02-14 15:10:00,45.5,38.4,29.99,West,270,1.8,2.5,76,0.00,,,0.13,WUHU216HW,2013-02-14 20:10:00,
2013-02-14 15:15:00,45.4,37.9,29.99,South,180,1.1,4.0,75,0.00,,,0.13,WUHU216HW,2013-02-14 20:15:00,
2013-02-14 15:20:00,45.0,37.5,30.00,SSW,203,1.8,4.0,75,0.00,,,0.13,WUHU216HW,2013-02-14 20:20:00,
2013-02-14 15:25:00,44.6,37.5,29.99,NW,315,1.1,3.6,76,0.00,,,0.13,WUHU216HW,2013-02-14 20:25:00,
2013-02-14 15:30:00,44.6,37.9,29.99,WNW,293,2.2,4.5,77,0.00,,,0.13,WUHU216HW,2013-02-14 20:30:00,
2013-02-14 15:35:00,44.5,37.7,29.99,WNW,293,0.7,4.5,77,0.00,,,0.13,WUHU216HW,2013-02-14 20:35:00,
2013-02-14 15:40:00,44.3,37.5,29.99,North,0,0.4,4.3,77,0.00,,,0.13,WUHU216HW,2013-02-14 20:40:00,
2013-02-14 15:45:00,44.1,37.4,29.99,West,270,1.8,4.0,77,0.00,,,0.13,WUHU216HW,2013-02-14 20:45:00,
2013-02-14 15:50:00,43.9,37.2,29.99,WSW,248,1.1,4.0,77,0.00,,,0.13,WUHU216HW,2013-02-14 20:50:00,
2013-02-14 15:55:00,43.9,37.5,30.00,North,0,2.5,3.6,78,0.00,,,0.13,WUHU216HW,2013-02-14 20:55:00,
2013-02-14 16:00:00,43.6,36.8,30.00,WSW,248,3.4,4.5,77,0.00,,,0.13,WUHU216HW,2013-02-14 21:00:00,
2013-02-14 16:05:00,43.0,36.6,30.00,WSW,248,2.5,5.6,78,0.00,,,0.13,WUHU216HW,2013-02-14 21:05:00,
2013-02-14 16:10:00,42.7,36.5,30.00,WSW,248,1.1,5.6,79,0.00,,,0.13,WUHU216HW,2013-02-14 21:10:00,
2013-02-14 16:15:00,42.5,36.4,30.00,West,270,2.9,5.4,79,0.00,,,0.13,WUHU216HW,2013-02-14 21:15:00,
2013-02-14 16:20:00,42.3,36.2,30.00,NW,315,1.1,4.3,79,0.00,,,0.13,WUHU216HW,2013-02-14 21:20:00,
2013-02-14 16:26:00,42.3,36.5,30.01,WNW,293,3.8,4.3,80,0.00,,,0.13,WUHU216HW,2013-02-14 21:26:00,
2013-02-14 16:31:00,41.9,36.2,30.01,WSW,248,2.5,3.8,80,0.00,,,0.13,WUHU216HW,2013-02-14 21:31:00,
2013-02-14 16:36:00,41.8,36.0,30.01,WNW,293,3.1,3.8,80,0.00,,,0.13,WUHU216HW,2013-02-14 21:36:00,
2013-02-14 16:41:00,41.4,35.9,30.01,West,270,1.1,5.4,81,0.00,,,0.13,WUHU216HW,2013-02-14 21:41:00,
2013-02-14 16:46:00,41.4,35.9,30.02,South,180,2.5,5.4,81,0.00,,,0.13,WUHU216HW,2013-02-14 21:46:00,
2013-02-14 16:51:00,41.4,35.9,30.01,ESE,113,1.6,4.7,81,0.00,,,0.13,WUHU216HW,2013-02-14 21:51:00,
2013-02-14 16:56:00,41.2,36.1,30.01,WSW,248,4.7,4.7,82,0.00,,,0.13,WUHU216HW,2013-02-14 21:56:00,
2013-02-14 17:01:00,40.9,35.7,30.01,WSW,248,2.0,5.4,82,0.00,,,0.13,WUHU216HW,2013-02-14 22:01:00,
2013-02-14 17:06:00,40.7,35.6,30.01,NW,315,3.4,5.4,82,0.00,,,0.13,WUHU216HW,2013-02-14 22:06:00,
2013-02-14 17:11:00,40.3,35.6,30.00,NNW,338,2.2,3.4,83,0.00,,,0.13,WUHU216HW,2013-02-14 22:11:00,
2013-02-14 17:16:00,40.1,35.1,30.00,West,270,0.4,3.4,82,0.00,,,0.13,WUHU216HW,2013-02-14 22:16:00,
2013-02-14 17:21:00,40.0,34.9,30.00,SSW,203,1.8,3.4,82,0.00,,,0.13,WUHU216HW,2013-02-14 22:21:00,
2013-02-14 17:26:00,39.6,34.8,30.00,WSW,248,1.8,3.6,83,0.00,,,0.13,WUHU216HW,2013-02-14 22:26:00,
2013-02-14 17:31:00,39.4,34.7,30.00,WSW,248,1.1,3.6,83,0.00,,,0.13,WUHU216HW,2013-02-14 22:31:00,
2013-02-14 17:36:00,39.2,34.6,30.00,NW,315,0.7,3.1,83,0.00,,,0.13,WUHU216HW,2013-02-14 22:36:00,
2013-02-14 17:41:00,39.1,34.7,30.00,WSW,248,0.9,2.5,84,0.00,,,0.13,WUHU216HW,2013-02-14 22:41:00,
2013-02-14 17:46:00,38.9,34.5,30.01,WNW,293,1.1,2.5,84,0.00,,,0.13,WUHU216HW,2013-02-14 22:46:00,
2013-02-14 17:51:00,38.9,34.5,30.01,WSW,248,1.1,3.6,84,0.00,,,0.13,WUHU216HW,2013-02-14 22:51:00,
2013-02-14 17:56:00,38.7,34.3,30.01,West,270,0.9,3.6,84,0.00,,,0.13,WUHU216HW,2013-02-14 22:56:00,
2013-02-14 18:01:00,38.5,34.1,30.02,SW,225,1.1,3.1,84,0.00,,,0.13,WUHU216HW,2013-02-14 23:01:00,
2013-02-14 18:06:00,38.5,34.4,30.02,South,180,1.6,3.1,85,0.00,,,0.13,WUHU216HW,2013-02-14 23:06:00,
2013-02-14 18:11:00,38.5,34.4,30.02,NNW,338,2.0,2.9,85,0.00,,,0.13,WUHU216HW,2013-02-14 23:11:00,
2013-02-14 18:16:00,38.3,34.2,30.02,SW,225,2.7,2.9,85,0.00,,,0.13,WUHU216HW,2013-02-14 23:16:00,
2013-02-14 18:21:00,38.3,34.2,30.02,WNW,293,0.7,2.7,85,0.00,,,0.13,WUHU216HW,2013-02-14 23:21:00,
2013-02-14 18:26:00,38.3,34.5,30.02,WNW,293,0.9,2.5,86,0.00,,,0.13,WUHU216HW,2013-02-14 23:26:00,
2013-02-14 18:31:00,38.3,34.5,30.02,SW,225,1.8,3.4,86,0.00,,,0.13,WUHU216HW,2013-02-14 23:31:00,
2013-02-14 18:36:00,38.2,34.3,30.01,SW,225,1.1,3.4,86,0.00,,,0.13,WUHU216HW,2013-02-14 23:36:00,
2013-02-14 18:41:00,38.2,34.3,30.01,North,0,1.8,4.3,86,0.00,,,0.13,WUHU216HW,2013-02-14 23:41:00,
2013-02-14 18:46:00,38.2,34.3,30.01,SW,225,2.2,4.3,86,0.00,,,0.13,WUHU216HW,2013-02-14 23:46:00,
2013-02-14 18:51:00,38.2,34.3,30.01,NNW,338,2.5,3.4,86,0.00,,,0.13,WUHU216HW,2013-02-14 23:51:00,
2013-02-14 18:56:00,38.2,34.3,30.01,West,270,2.7,3.4,86,0.00,,,0.13,WUHU216HW,2013-02-14 23:56:00,
2013-02-14 19:01:00,38.0,34.4,30.01,SW,225,0.4,4.3,87,0.00,,,0.13,WUHU216HW,2013-02-15 00:01:00,
2013-02-14 19:06:00,38.0,34.4,30.02,WSW,248,1.1,4.3,87,0.00,,,0.13,WUHU216HW,2013-02-15 00:06:00,
2013-02-14 19:11:00,38.0,34.4,30.02,WNW,293,0.4,2.7,87,0.00,,,0.13,WUHU216HW,2013-02-15 00:11:00,
2013-02-14 19:16:00,37.8,34.2,30.02,WNW,293,1.1,2.5,87,0.00,,,0.13,WUHU216HW,2013-02-15 00:16:00,
2013-02-14 19:21:00,37.8,34.2,30.02,West,270,1.8,2.9,87,0.00,,,0.13,WUHU216HW,2013-02-15 00:21:00,
2013-02-14 19:26:00,37.8,34.6,30.03,WNW,293,1.6,4.9,88,0.00,,,0.13,WUHU216HW,2013-02-15 00:26:00,
2013-02-14 19:31:00,37.8,34.8,30.03,West,270,1.8,4.9,89,0.00,,,0.13,WUHU216HW,2013-02-15 00:31:00,
2013-02-14 19:36:00,37.8,34.8,30.03,WSW,248,2.7,4.0,89,0.00,,,0.13,WUHU216HW,2013-02-15 00:36:00,
2013-02-14 19:41:00,37.8,34.8,30.04,NW,315,4.3,4.9,89,0.00,,,0.13,WUHU216HW,2013-02-15 00:41:00,
2013-02-14 19:46:00,37.8,34.8,30.03,WNW,293,1.8,4.9,89,0.00,,,0.13,WUHU216HW,2013-02-15 00:46:00,
2013-02-14 19:51:00,37.8,34.6,30.03,West,270,2.5,4.3,88,0.00,,,0.13,WUHU216HW,2013-02-15 00:51:00,
2013-02-14 19:56:00,37.6,34.4,30.03,West,270,1.1,4.0,88,0.00,,,0.13,WUHU216HW,2013-02-15 00:56:00,
2013-02-14 20:01:00,37.6,34.4,30.03,NW,315,3.8,3.8,88,0.00,,,0.13,WUHU216HW,2013-02-15 01:01:00,
2013-02-14 20:06:00,37.6,34.4,30.03,WSW,248,2.5,3.8,88,0.00,,,0.13,WUHU216HW,2013-02-15 01:06:00,
2013-02-14 20:11:00,37.6,34.4,30.02,NNW,338,1.8,4.0,88,0.00,,,0.13,WUHU216HW,2013-02-15 01:11:00,
2013-02-14 20:16:00,37.4,34.2,30.02,WNW,293,2.0,4.0,88,0.00,,,0.13,WUHU216HW,2013-02-15 01:16:00,
2013-02-14 20:21:00,37.4,34.2,30.03,West,270,3.6,3.6,88,0.00,,,0.13,WUHU216HW,2013-02-15 01:21:00,
2013-02-14 20:26:00,37.4,34.2,30.03,WNW,293,1.3,3.6,88,0.00,,,0.13,WUHU216HW,2013-02-15 01:26:00,
2013-02-14 20:31:00,37.4,34.5,30.03,NE,45,5.1,6.3,89,0.00,,,0.13,WUHU216HW,2013-02-15 01:31:00,
2013-02-14 20:36:00,37.4,34.5,30.03,NNW,338,3.4,6.3,89,0.00,,,0.13,WUHU216HW,2013-02-15 01:36:00,
2013-02-14 20:41:00,37.4,33.8,30.03,West,270,3.8,5.1,87,0.00,,,0.13,WUHU216HW,2013-02-15 01:41:00,
2013-02-14 20:46:00,37.4,34.2,30.03,West,270,4.7,4.7,88,0.00,,,0.13,WUHU216HW,2013-02-15 01:46:00,
2013-02-14 20:51:00,37.3,33.7,30.03,NW,315,1.1,5.1,87,0.00,,,0.13,WUHU216HW,2013-02-15 01:51:00,
2013-02-14 20:56:00,37.3,33.7,30.04,West,270,1.6,5.1,87,0.00,,,0.13,WUHU216HW,2013-02-15 01:56:00,
2013-02-14 21:01:00,37.3,34.0,30.04,North,0,4.0,5.4,88,0.00,,,0.13,WUHU216HW,2013-02-15 02:01:00,
2013-02-14 21:06:00,37.1,33.9,30.04,WNW,293,5.6,5.6,88,0.00,,,0.13,WUHU216HW,2013-02-15 02:06:00,
2013-02-14 21:11:00,37.3,34.0,30.04,NNW,338,5.6,5.6,88,0.00,,,0.13,WUHU216HW,2013-02-15 02:11:00,
2013-02-14 21:16:00,37.1,33.9,30.04,West,270,3.4,5.6,88,0.00,,,0.13,WUHU216HW,2013-02-15 02:16:00,
2013-02-14 21:21:00,37.1,33.5,30.04,West,270,3.1,5.6,87,0.00,,,0.13,WUHU216HW,2013-02-15 02:21:00,
2013-02-14 21:26:00,37.1,33.5,30.04,North,0,1.8,4.9,87,0.00,,,0.13,WUHU216HW,2013-02-15 02:26:00,
2013-02-14 21:31:00,37.1,33.5,30.04,WNW,293,3.4,4.9,87,0.00,,,0.13,WUHU216HW,2013-02-15 02:31:00,
2013-02-14 21:36:00,37.1,33.5,30.04,WNW,293,1.1,6.5,87,0.00,,,0.13,WUHU216HW,2013-02-15 02:36:00,
2013-02-14 21:41:00,37.1,33.9,30.04,NW,315,4.5,6.5,88,0.00,,,0.13,WUHU216HW,2013-02-15 02:41:00,
2013-02-14 21:46:00,36.9,33.3,30.04,NNW,338,2.5,5.8,87,0.00,,,0.13,WUHU216HW,2013-02-15 02:46:00,
2013-02-14 21:51:00,36.9,33.3,30.04,NNW,338,1.3,5.1,87,0.00,,,0.13,WUHU216HW,2013-02-15 02:51:00,
2013-02-14 21:56:00,36.9,33.7,30.04,West,270,3.4,6.3,88,0.00,,,0.13,WUHU216HW,2013-02-15 02:56:00,
2013-02-14 22:01:00,36.9,33.7,30.05,WNW,293,4.9,6.9,88,0.00,,,0.13,WUHU216HW,2013-02-15 03:01:00,
2013-02-14 22:06:00,37.1,34.1,30.04,West,270,3.8,6.9,89,0.00,,,0.13,WUHU216HW,2013-02-15 03:06:00,
2013-02-14 22:11:00,37.1,33.9,30.05,West,270,4.7,5.1,88,0.00,,,0.13,WUHU216HW,2013-02-15 03:11:00,
2013-02-14 22:16:00,36.9,33.7,30.05,West,270,3.6,6.3,88,0.00,,,0.13,WUHU216HW,2013-02-15 03:16:00,
2013-02-14 22:21:00,36.9,33.7,30.04,North,0,1.1,6.3,88,0.00,,,0.13,WUHU216HW,2013-02-15 03:21:00,
2013-02-14 22:26:00,36.7,33.5,30.04,West,270,4.0,6.3,88,0.00,,,0.13,WUHU216HW,2013-02-15 03:26:00,
2013-02-14 22:31:00,36.7,33.8,30.04,West,270,2.9,6.3,89,0.00,,,0.13,WUHU216HW,2013-02-15 03:31:00,
2013-02-14 22:36:00,36.7,33.8,30.04,WNW,293,5.4,5.4,89,0.00,,,0.13,WUHU216HW,2013-02-15 03:36:00,
2013-02-14 22:41:00,36.7,33.8,30.04,WNW,293,2.5,5.4,89,0.00,,,0.13,WUHU216HW,2013-02-15 03:41:00,
2013-02-14 22:47:00,36.5,33.3,30.04,WNW,293,1.1,4.7,88,0.00,,,0.13,WUHU216HW,2013-02-15 03:47:00,
2013-02-14 22:52:00,36.4,33.1,30.04,WSW,248,1.1,4.0,88,0.00,,,0.13,WUHU216HW,2013-02-15 03:52:00,
2013-02-14 22:57:00,36.4,33.1,30.04,West,270,3.6,3.6,88,0.00,,,0.13,WUHU216HW,2013-02-15 03:57:00,
2013-02-14 23:02:00,36.2,33.0,30.04,West,270,1.8,4.0,88,0.00,,,0.13,WUHU216HW,2013-02-15 04:02:00,
2013-02-14 23:07:00,36.2,33.0,30.04,NW,315,2.5,4.0,88,0.00,,,0.13,WUHU216HW,2013-02-15 04:07:00,
2013-02-14 23:12:00,36.2,33.2,30.04,West,270,1.6,4.3,89,0.00,,,0.13,WUHU216HW,2013-02-15 04:12:00,
2013-02-14 23:17:00,36.2,33.2,30.04,NW,315,2.9,4.3,89,0.00,,,0.13,WUHU216HW,2013-02-15 04:17:00,
2013-02-14 23:22:00,36.2,33.2,30.04,West,270,1.6,3.4,89,0.00,,,0.13,WUHU216HW,2013-02-15 04:22:00,
2013-02-14 23:27:00,36.0,33.0,30.04,NW,315,0.7,3.6,89,0.00,,,0.13,WUHU216HW,2013-02-15 04:27:00,
2013-02-14 23:32:00,36.0,33.0,30.04,WSW,248,2.5,3.6,89,0.00,,,0.13,WUHU216HW,2013-02-15 04:32:00,
2013-02-14 23:37:00,36.0,33.0,30.04,WNW,293,0.4,4.0,89,0.00,,,0.13,WUHU216HW,2013-02-15 04:37:00,
2013-02-14 23:42:00,35.8,32.9,30.04,West,270,0.7,4.0,89,0.00,,,0.13,WUHU216HW,2013-02-15 04:42:00,
2013-02-14 23:47:00,35.8,32.9,30.04,West,270,1.3,2.9,89,0.00,,,0.13,WUHU216HW,2013-02-15 04:47:00,
2013-02-14 23:52:00,35.8,32.9,30.05,WNW,293,1.1,2.7,89,0.00,,,0.13,WUHU216HW,2013-02-15 04:52:00,
2013-02-14 23:57:00,35.8,32.9,30.05,NW,315,3.1,3.4,89,0.00,,,0.13,WUHU216HW,2013-02-15 04:57:00,